AAL27E KMIA-KDFW

Flight info

Callsign AAL27E
Flight time N/A
Altitude 36000
Route GLADZ4 BAGGS REMIS Y280 NAITE/N0488F380 Y280 REDFN Q105 HRV PNUTS BEREE3
Aircraft B77W/H-SDE1E2E3FGHIJ2J3J4J5M1RWXY/LB1D1

Departure

Time 2026-05-03 21:25
Airport Miami International Airport (KMIA)

Arrival

Time N/A
Airport Dallas Fort Worth International Airport (KDFW)
Time Latitude Longitude Altitude Speed Heading
2026-05-03 20:58 25.79802 -80.27715 20 ft 0 kts 178°
2026-05-03 21:12 25.79821 -80.27716 21 ft 4 kts 178°
2026-05-03 21:12 25.79848 -80.27718 21 ft 4 kts 178°
2026-05-03 21:12 25.79871 -80.27720 24 ft 4 kts 157°
2026-05-03 21:13 25.79890 -80.27737 24 ft 4 kts 108°
2026-05-03 21:13 25.79892 -80.27766 25 ft 4 kts 82°
2026-05-03 21:13 25.79888 -80.27795 23 ft 4 kts 79°
2026-05-03 21:13 25.79885 -80.27811 23 ft 0 kts 86°
2026-05-03 21:18 25.79886 -80.27803 24 ft 4 kts 86°
2026-05-03 21:18 25.79914 -80.27761 22 ft 7 kts 23°
2026-05-03 21:18 25.79956 -80.27769 22 ft 6 kts 326°
2026-05-03 21:19 25.79970 -80.27808 20 ft 6 kts 279°
2026-05-03 21:19 25.79973 -80.27866 18 ft 9 kts 279°
2026-05-03 21:19 25.80020 -80.27904 17 ft 9 kts 337°
2026-05-03 21:19 25.80048 -80.27961 16 ft 9 kts 271°
2026-05-03 21:20 25.80047 -80.28056 16 ft 21 kts 268°
2026-05-03 21:20 25.80039 -80.28259 20 ft 27 kts 268°
2026-05-03 21:20 25.80029 -80.28464 20 ft 26 kts 269°
2026-05-03 21:20 25.80024 -80.28653 27 ft 23 kts 267°
2026-05-03 21:21 25.80017 -80.28822 27 ft 22 kts 267°
2026-05-03 21:21 25.80009 -80.29006 29 ft 26 kts 267°
2026-05-03 21:21 25.80000 -80.29208 26 ft 26 kts 267°
2026-05-03 21:21 25.79991 -80.29410 21 ft 26 kts 268°
2026-05-03 21:22 25.79984 -80.29612 19 ft 26 kts 267°
2026-05-03 21:22 25.79976 -80.29789 18 ft 17 kts 267°
2026-05-03 21:22 25.79971 -80.29897 16 ft 14 kts 267°
2026-05-03 21:22 25.79966 -80.30007 17 ft 14 kts 268°
2026-05-03 21:23 25.79979 -80.30075 18 ft 13 kts 292°
2026-05-03 21:23 25.80031 -80.30124 20 ft 9 kts 345°
2026-05-03 21:23 25.80071 -80.30098 19 ft 7 kts 77°
2026-05-03 21:23 25.80072 -80.30067 18 ft 0 kts 87°
2026-05-03 21:24 25.80072 -80.30066 18 ft 1 kts 87°
2026-05-03 21:24 25.80079 -80.29898 17 ft 54 kts 87°
2026-05-03 21:24 25.80110 -80.29172 29 ft 131 kts 87°
2026-05-03 21:24 25.80168 -80.27934 132 ft 179 kts 86°
2026-05-03 21:25 25.80264 -80.26599 952 ft 174 kts 85°
2026-05-03 21:25 25.80347 -80.25212 1595 ft 183 kts 87°
2026-05-03 21:25 25.80409 -80.23731 2022 ft 204 kts 87°
2026-05-03 21:25 25.80468 -80.22054 2275 ft 232 kts 88°
2026-05-03 21:26 25.80528 -80.20144 2549 ft 260 kts 88°
2026-05-03 21:26 25.80828 -80.18142 3126 ft 270 kts 64°
2026-05-03 21:26 25.82018 -80.16534 3878 ft 274 kts 31°
2026-05-03 21:26 25.83799 -80.15868 4689 ft 271 kts
2026-05-03 21:27 25.85710 -80.15811 5297 ft 280 kts 358°
2026-05-03 21:27 25.87666 -80.15760 6153 ft 282 kts 358°
2026-05-03 21:27 25.89637 -80.15774 6792 ft 284 kts 348°
2026-05-03 21:27 25.91545 -80.16304 7031 ft 284 kts 338°
2026-05-03 21:28 25.93418 -80.17016 7046 ft 285 kts 336°
2026-05-03 21:28 25.95296 -80.17722 7268 ft 285 kts 338°
2026-05-03 21:28 25.97132 -80.18501 8005 ft 280 kts 324°
2026-05-03 21:28 25.98498 -80.19976 8755 ft 273 kts 297°
2026-05-03 21:29 25.99194 -80.21904 9602 ft 269 kts 279°
2026-05-03 21:29 25.99458 -80.23974 10330 ft 273 kts 275°
2026-05-03 21:29 25.99695 -80.26147 10668 ft 297 kts 275°
2026-05-03 21:29 25.99868 -80.28545 10865 ft 325 kts 270°
2026-05-03 21:30 25.99849 -80.31155 11132 ft 348 kts 268°
2026-05-03 21:30 25.99795 -80.33885 11831 ft 358 kts 268°
2026-05-03 21:30 25.99769 -80.36678 12719 ft 363 kts 268°
2026-05-03 21:30 25.99759 -80.39496 13693 ft 366 kts 268°
2026-05-03 21:31 25.99454 -80.42290 14367 ft 369 kts 253°
2026-05-03 21:31 25.98379 -80.44894 15182 ft 374 kts 238°
2026-05-03 21:31 25.96815 -80.47211 15911 ft 378 kts 233°
2026-05-03 21:31 25.95165 -80.49501 16428 ft 383 kts 233°
2026-05-03 21:32 25.93494 -80.51812 17293 ft 382 kts 234°
2026-05-03 21:32 25.92248 -80.54400 17894 ft 385 kts 255°
2026-05-03 21:32 25.91967 -80.57362 18636 ft 389 kts 270°
2026-05-03 21:32 25.92310 -80.60358 19410 ft 394 kts 280°
2026-05-03 21:33 25.93246 -80.63230 20347 ft 401 kts 291°
2026-05-03 21:33 25.94468 -80.66038 21233 ft 407 kts 292°
2026-05-03 21:33 25.95764 -80.68864 21830 ft 413 kts 292°
2026-05-03 21:33 25.97071 -80.71681 22524 ft 417 kts 292°
2026-05-03 21:34 25.98413 -80.74587 23220 ft 419 kts 292°
2026-05-03 21:34 25.99737 -80.77486 23840 ft 422 kts 291°
2026-05-03 21:34 26.01057 -80.80410 24348 ft 425 kts 291°
2026-05-03 21:34 26.02378 -80.83361 24874 ft 427 kts 291°
2026-05-03 21:35 26.03681 -80.86290 25391 ft 430 kts 291°
2026-05-03 21:35 26.05024 -80.89319 25917 ft 432 kts 291°
2026-05-03 21:35 26.06356 -80.92331 26479 ft 435 kts 290°
2026-05-03 21:35 26.07676 -80.95319 27009 ft 438 kts 290°
2026-05-03 21:36 26.09040 -80.98409 27510 ft 440 kts 290°
2026-05-03 21:36 26.10393 -81.01476 27981 ft 443 kts 290°
2026-05-03 21:36 26.11734 -81.04518 28424 ft 445 kts 290°
2026-05-03 21:36 26.13101 -81.07619 28857 ft 448 kts 290°
2026-05-03 21:37 26.14475 -81.10741 29257 ft 450 kts 290°
2026-05-03 21:37 26.15858 -81.13884 29643 ft 453 kts 290°
2026-05-03 21:37 26.17244 -81.17037 30011 ft 456 kts 290°
2026-05-03 21:37 26.18640 -81.20213 30361 ft 457 kts 290°
2026-05-03 21:38 26.20034 -81.23383 30833 ft 454 kts 290°
2026-05-03 21:38 26.21426 -81.26549 31363 ft 451 kts 290°
2026-05-03 21:38 26.22790 -81.29654 31888 ft 447 kts 290°
2026-05-03 21:38 26.24150 -81.32752 32437 ft 443 kts 289°
2026-05-03 21:39 26.25499 -81.35832 32927 ft 441 kts 289°
2026-05-03 21:39 26.26839 -81.38895 33350 ft 440 kts 289°
2026-05-03 21:39 26.28177 -81.41958 33758 ft 439 kts 289°